Weather History for Storm Lake, IA

Change the Weather History Date:

Friday, March 8, 2013

  Actual Average Record
Temperature  
Mean Temperature 34 °F -  
Max Temperature 44 °F 32 °F 57 °F (2004)
Min Temperature 23 °F 18 °F 3 °F (2008)
Degree Days  
Heating Degree Days 32    
Moisture  
Dew Point 30 °F    
Average Humidity 90    
Maximum Humidity 100    
Minimum Humidity 76    
Precipitation  
Precipitation 0.07 in - - ()
Sea Level Pressure  
Sea Level Pressure 30.10 in    
Wind  
Wind Speed 13 mph (SE)    
Max Wind Speed 23 mph    
Max Gust Speed 30 mph    
Visibility 5 miles    
Events Rain , Snow    
Averages and records for this station are not official NWS values.
T = Trace of Precipitation, MM = Missing Value Source: NWS Daily Summary

Daily Weather History Graph

Daily Weather History Graph

Search for Another Location

Airport:

Trip Planner

Search our weather history database for the weather conditions in past years. The results will help you decide how hot, cold, wet, or windy it might be!

Date:

Astronomy

Mar. 08, 2013 Rise Set
Actual Time 6:44 AM CST 6:19 PM CST
Civil Twilight 6:16 AM CST 6:47 PM CST
Nautical Twilight 5:43 AM CST 7:20 PM CST
Astronomical Twilight 5:10 AM CST 7:53 PM CST
Moon 4:33 AM CST (3/8) 3:12 PM CST (3/8)
Length of Visible Light 12h 31m
Length of Day
11h 35m
Waning Crescent, 11% of the Moon is Illuminated
Mar 8
Waning Crescent
Mar 11
New
Mar 19
First Quarter
Mar 27
Full
Apr 2
Last Quarter

Hourly Weather History & Observations

Time (CST) Temp. Windchill Dew Point Humidity Pressure Visibility Wind Dir Wind Speed Gust Speed Precip Events Conditions
12:15 AM 26.6 °F 15.2 °F 24.8 °F 93% 30.19 in 6.0 mi SE 13.8 mph - N/A   Clear
12:35 AM 26.6 °F 15.2 °F 24.8 °F 93% 30.19 in 6.0 mi SE 13.8 mph - N/A   Clear
12:55 AM 26.6 °F 15.2 °F 24.8 °F 93% 30.19 in 6.0 mi SSE 13.8 mph - N/A   Clear
1:15 AM 26.6 °F 15.2 °F 24.8 °F 93% 30.20 in 6.0 mi SSE 13.8 mph - N/A   Clear
1:35 AM 26.6 °F 15.7 °F 24.8 °F 93% 30.20 in 7.0 mi SE 12.7 mph - N/A   Clear
1:55 AM 26.6 °F 15.2 °F 24.8 °F 93% 30.20 in 7.0 mi SE 13.8 mph - N/A   Clear
2:15 AM 26.6 °F 16.8 °F 24.8 °F 93% 30.20 in 6.0 mi SE 10.4 mph - N/A   Clear
2:35 AM 26.6 °F 16.8 °F 24.8 °F 93% 30.19 in 6.0 mi SE 10.4 mph - N/A   Clear
2:55 AM 24.8 °F 16.1 °F 23.0 °F 93% 30.19 in 5.0 mi SE 8.1 mph - N/A   Clear
3:15 AM 24.8 °F 16.1 °F 23.0 °F 93% 30.18 in 4.0 mi SE 8.1 mph - N/A   Clear
3:35 AM 24.8 °F 16.9 °F 23.0 °F 93% 30.18 in 4.0 mi SE 6.9 mph - N/A   Clear
3:55 AM 23.0 °F 13.9 °F 23.0 °F 100% 30.18 in 4.0 mi ESE 8.1 mph - N/A   Clear
4:15 AM 23.0 °F 15.8 °F 23.0 °F 100% 30.18 in 4.0 mi ESE 5.8 mph - N/A   Clear
4:35 AM 23.0 °F 13.9 °F 23.0 °F 100% 30.18 in 4.0 mi ESE 8.1 mph - N/A   Clear
4:55 AM 23.0 °F 13.9 °F 23.0 °F 100% 30.18 in 4.0 mi ESE 8.1 mph - N/A   Clear
5:15 AM 23.0 °F 13.9 °F 23.0 °F 100% 30.18 in 4.0 mi ESE 8.1 mph - N/A   Clear
5:35 AM 23.0 °F 14.7 °F 21.2 °F 93% 30.18 in 4.0 mi ESE 6.9 mph - N/A   Clear
5:55 AM 23.0 °F 13.9 °F 21.2 °F 93% 30.18 in 4.0 mi ESE 8.1 mph - N/A   Clear
6:15 AM 23.0 °F 13.1 °F 23.0 °F 100% 30.18 in 4.0 mi ESE 9.2 mph - N/A   Clear
6:35 AM 23.0 °F 13.1 °F 21.2 °F 93% 30.17 in 3.0 mi ESE 9.2 mph - N/A   Clear
6:55 AM 23.0 °F 12.4 °F 23.0 °F 100% 30.17 in 2.0 mi ESE 10.4 mph - N/A   Clear
7:15 AM 23.0 °F 12.4 °F 23.0 °F 100% 30.16 in 2.0 mi ESE 10.4 mph - N/A   Clear
7:35 AM 24.8 °F 15.3 °F 23.0 °F 93% 30.18 in 2.0 mi ESE 9.2 mph - N/A   Clear
7:55 AM 24.8 °F 14.0 °F 23.0 °F 93% 30.18 in 2.5 mi SE 11.5 mph - N/A   Clear
8:15 AM 24.8 °F 15.3 °F 24.8 °F 100% 30.19 in 2.5 mi ESE 9.2 mph - N/A   Clear
8:35 AM 26.6 °F 18.2 °F 24.8 °F 93% 30.19 in 3.0 mi ESE 8.1 mph - N/A   Clear
8:55 AM 28.4 °F 19.1 °F 26.6 °F 93% 30.18 in 3.0 mi ESE 10.4 mph - N/A   Clear
9:15 AM 28.4 °F 18.0 °F 26.6 °F 93% 30.18 in 3.0 mi SE 12.7 mph - N/A   Clear
9:35 AM 30.2 °F 20.8 °F 28.4 °F 93% 30.18 in 4.0 mi SE 11.5 mph - N/A   Clear
9:55 AM 30.2 °F 21.9 °F 28.4 °F 93% 30.18 in 4.0 mi ESE 9.2 mph - N/A   Clear
10:15 AM 32.0 °F 24.2 °F 30.2 °F 93% 30.18 in 4.0 mi ESE 9.2 mph - N/A   Clear
10:35 AM 33.8 °F 26.4 °F 30.2 °F 87% 30.17 in 5.0 mi ESE 9.2 mph - N/A   Clear
10:55 AM 35.6 °F 27.1 °F 30.2 °F 81% 30.16 in 5.0 mi ESE 12.7 mph - N/A   Haze
11:15 AM 35.6 °F 28.0 °F 32.0 °F 87% 30.15 in 5.0 mi ESE 10.4 mph - N/A   Haze
11:35 AM 37.4 °F 29.8 °F 32.0 °F 81% 30.16 in 6.0 mi SE 11.5 mph - N/A   Haze
11:55 AM 39.2 °F 32.0 °F 33.8 °F 81% 30.15 in 6.0 mi ESE 11.5 mph - N/A   Haze
12:15 PM 41.0 °F 34.7 °F 35.6 °F 81% 30.15 in 6.0 mi ESE 10.4 mph - N/A   Haze
12:35 PM 41.0 °F 34.3 °F 35.6 °F 81% 30.14 in 7.0 mi SE 11.5 mph - N/A   Clear
12:55 PM 42.8 °F 35.1 °F 35.6 °F 76% 30.11 in 6.0 mi ESE 16.1 mph - N/A   Haze
1:15 PM 42.8 °F 35.1 °F 35.6 °F 76% 30.10 in 7.0 mi ESE 16.1 mph - N/A   Clear
1:35 PM 44.6 °F 38.1 °F 37.4 °F 76% 30.10 in 7.0 mi ESE 13.8 mph - N/A   Clear
1:55 PM 44.6 °F 38.1 °F 37.4 °F 76% 30.09 in 7.0 mi SE 13.8 mph - N/A   Clear
2:15 PM 44.6 °F 36.9 °F 37.4 °F 76% 30.07 in 7.0 mi SE 18.4 mph - N/A   Clear
2:35 PM 44.6 °F 37.2 °F 37.4 °F 76% 30.07 in 7.0 mi ESE 17.3 mph - N/A   Clear
2:55 PM 44.6 °F 37.2 °F 37.4 °F 76% 30.07 in 7.0 mi ESE 17.3 mph - N/A   Clear
3:15 PM 42.8 °F 34.8 °F 37.4 °F 81% 30.06 in - ESE 17.3 mph 23.0 mph N/A   Clear
3:35 PM 41.0 °F 31.4 °F 37.4 °F 87% 30.05 in 6.0 mi ESE 21.9 mph 27.6 mph N/A   Haze
3:55 PM 41.0 °F 31.6 °F 35.6 °F 81% 30.04 in 6.0 mi SE 20.7 mph - N/A   Haze
4:15 PM 39.2 °F 30.2 °F 35.6 °F 87% 30.03 in 6.0 mi ESE 17.3 mph 26.5 mph N/A   Haze
4:35 PM 39.2 °F 29.8 °F 37.4 °F 93% 30.02 in 4.0 mi SE 18.4 mph 25.3 mph N/A   Clear
4:55 PM 39.2 °F 28.7 °F 35.6 °F 87% 30.01 in 5.0 mi SE 23.0 mph 29.9 mph N/A   Clear
5:15 PM 37.4 °F 27.2 °F 35.6 °F 93% 30.00 in 4.0 mi ESE 19.6 mph - N/A   Clear
5:35 PM 39.2 °F 29.6 °F 35.6 °F 87% 30.00 in 4.0 mi SE 19.6 mph - N/A   Clear
5:55 PM 39.2 °F 29.0 °F 35.6 °F 87% 30.00 in 4.0 mi SE 21.9 mph 27.6 mph N/A   Clear
6:15 PM 37.4 °F 27.8 °F 35.6 °F 93% 30.00 in 4.0 mi SE 17.3 mph - N/A   Partly Cloudy
6:35 PM 37.4 °F 27.8 °F 33.8 °F 87% 30.00 in 4.0 mi SE 17.3 mph 23.0 mph N/A   Mostly Cloudy
6:55 PM 37.4 °F 27.8 °F 33.8 °F 87% 30.00 in 6.0 mi SE 17.3 mph 24.2 mph N/A   Mostly Cloudy
7:15 PM 37.4 °F 27.8 °F 33.8 °F 87% 30.00 in 6.0 mi SE 17.3 mph - N/A   Mostly Cloudy
7:35 PM 37.4 °F 28.2 °F 33.8 °F 87% 29.99 in 6.0 mi SE 16.1 mph - N/A   Overcast
7:55 PM 37.4 °F 27.5 °F 32.0 °F 81% 29.99 in 7.0 mi SE 18.4 mph 26.5 mph N/A   Overcast
8:15 PM 37.4 °F 26.9 °F 32.0 °F 81% 29.99 in 6.0 mi SE 20.7 mph - N/A   Overcast
8:35 PM 35.6 °F 24.8 °F 33.8 °F 93% 30.00 in 3.0 mi SE 19.6 mph - N/A Snow Light Snow
8:55 PM 35.6 °F 25.9 °F 33.8 °F 93% 29.99 in 7.0 mi SE 16.1 mph - 0.03 in   Overcast
9:15 PM 35.6 °F 24.5 °F 33.8 °F 93% 29.98 in 3.0 mi SE 20.7 mph 28.8 mph N/A   Overcast
9:35 PM 35.6 °F 25.9 °F 33.8 °F 93% 29.99 in 7.0 mi SE 16.1 mph 24.2 mph N/A   Overcast
9:55 PM 35.6 °F 25.5 °F 33.8 °F 93% 29.99 in 5.0 mi SE 17.3 mph - 0.01 in   Overcast
10:15 PM 35.6 °F 25.2 °F 33.8 °F 93% 29.98 in 4.0 mi SE 18.4 mph - N/A Rain Light Rain
10:35 PM 35.6 °F 25.2 °F 33.8 °F 93% 29.96 in 6.0 mi SE 18.4 mph - N/A   Overcast
10:55 PM 35.6 °F 25.5 °F 33.8 °F 93% 29.96 in 3.0 mi SE 17.3 mph - 0.03 in Rain Light Rain
11:15 PM 35.6 °F 25.9 °F 33.8 °F 93% 29.95 in 3.0 mi SE 16.1 mph - N/A   Overcast
11:35 PM 35.6 °F 25.5 °F 33.8 °F 93% 29.95 in 4.0 mi SE 17.3 mph 24.2 mph N/A   Overcast
11:55 PM 35.6 °F 25.9 °F 33.8 °F 93% 29.94 in 4.0 mi SE 16.1 mph 23.0 mph N/A   Overcast